Location: Chavenne
(46.6022°N, 3.2951°E)
Time: 11:22:54
(UTC+00:00)

Cosmos 1892 - Pass Details

Date: 09 April 2020
Orbit: 503 x 526 km, 82.5° (Epoch: 03 June)

Event Time Altitude Azimuth Distance (km) Brightness Sun altitude
Rises 19:56:19 0° 0° (N) 2,674 6.7 -15.1°
Reaches altitude 10° 19:58:42 10° 12° (NNE) 1,780 5.6 -15.4°
Maximum altitude 20:02:06 28° 73° (ENE) 1,010 3.8 -15.9°
Enters shadow 20:02:37 27° 88° (E) 1,032 3.7 -16.0°
